This is the latest recevied weather packets stored in our database for station/object LZ1NAG-10. If no packets are shown the sender has not sent any weather packets the latest 10 day(s).
| Time | Temp. | Humidity | Pressure | Rain* | Wind** | Luminosity | Snow |
|---|---|---|---|---|---|---|---|
| 1777960088 | 23.33° C | 43% | 1021.7 hPa | - | - | - | - |
| 1777959188 | 22.22° C | 43% | 1021.8 hPa | - | - | - | - |
| 1777958287 | 20° C | 42% | 1022 hPa | - | - | - | - |
| 1777957387 | 10.56° C | 52% | 1021.9 hPa | - | - | - | - |
| 1777956486 | 10° C | 52% | 1021.9 hPa | - | - | - | - |
| 1777955586 | 8.89° C | 53% | 1022 hPa | - | - | - | - |
| 1777954686 | 7.78° C | 54% | 1021.8 hPa | - | - | - | - |
| 1777953786 | 7.22° C | 54% | 1021.7 hPa | - | - | - | - |
| 1777952886 | 7.22° C | 54% | 1021.7 hPa | - | - | - | - |
| 1777951985 | 7.22° C | 54% | 1021.6 hPa | - | - | - | - |
| 1777951085 | 6.67° C | 54% | 1021.8 hPa | - | - | - | - |
| 1777950183 | 7.22° C | 54% | 1021.7 hPa | - | - | - | - |
| 1777949283 | 7.22° C | 54% | 1021.6 hPa | - | - | - | - |
| 1777948383 | 7.22° C | 54% | 1021.7 hPa | - | - | - | - |
| 1777947482 | 7.22° C | 54% | 1021.7 hPa | - | - | - | - |
| 1777946585 | 7.22° C | 55% | 1021.8 hPa | - | - | - | - |
| 1777945682 | 7.22° C | 54% | 1021.7 hPa | - | - | - | - |
| 1777944782 | 7.78° C | 54% | 1021.6 hPa | - | - | - | - |
| 1777943882 | 8.89° C | 54% | 1021.7 hPa | - | - | - | - |
| 1777942982 | 8.33° C | 54% | 1021.7 hPa | - | - | - | - |
| 1777942081 | 7.78° C | 54% | 1021.9 hPa | - | - | - | - |
| 1777941181 | 7.78° C | 54% | 1021.7 hPa | - | - | - | - |
| 1777940281 | 8.33° C | 54% | 1021.6 hPa | - | - | - | - |
| 1777939381 | 7.78° C | 54% | 1021.7 hPa | - | - | - | - |
| 1777938481 | 7.22° C | 55% | 1021.7 hPa | - | - | - | - |
* Rain since midnight (hover to see other rain measurements)
** Current wind speed in m/s (hover to see current wind gust speed)